Weather History for Marshalltown, IA

Change the Weather History Date:

Monday, March 4, 2013

  Actual Average Record
Temperature  
Mean Temperature 29 °F 30 °F  
Max Temperature 33 °F 39 °F 54 °F (2005)
Min Temperature 24 °F 21 °F -7 °F (2002)
Degree Days  
Heating Degree Days 36 35  
Month to date heating degree days 177 142  
Since 1 July heating degree days 5181 5545  
Cooling Degree Days 0 0  
Month to date cooling degree days 0 0  
Year to date cooling degree days 0 0  
Moisture  
Dew Point 24 °F    
Average Humidity 88    
Maximum Humidity 100    
Minimum Humidity 75    
Precipitation  
Precipitation 0.02 in 0.05 in 0.64 in (2004)
Month to date precipitation 0.02 0.20  
Sea Level Pressure  
Sea Level Pressure 29.91 in    
Wind  
Wind Speed 17 mph (ESE)    
Max Wind Speed 20 mph    
Max Gust Speed -    
Visibility 5 miles    
Events Snow    
T = Trace of Precipitation, MM = Missing Value Source: NWS Daily Summary

Daily Weather History Graph

Daily Weather History Graph

Search for Another Location

Airport:

Trip Planner

Search our weather history database for the weather conditions in past years. The results will help you decide how hot, cold, wet, or windy it might be!

Date:

Astronomy

Mar. 04, 2013 Rise Set
Actual Time 6:41 AM CST 6:05 PM CST
Civil Twilight 6:13 AM CST 6:33 PM CST
Nautical Twilight 5:41 AM CST 7:06 PM CST
Astronomical Twilight 5:08 AM CST 7:38 PM CST
Moon 12:56 AM CST (3/4) 10:43 AM CST (3/4)
Length of Visible Light 12h 20m
Length of Day
11h 24m
Waning Gibbous, 52% of the Moon is Illuminated
Mar 4
Waning Gibbous
Mar 4
Last Quarter
Mar 11
New
Mar 19
First Quarter
Mar 27
Full

Hourly Weather History & Observations

Time (CST) Temp. Windchill Dew Point Humidity Pressure Visibility Wind Dir Wind Speed Gust Speed Precip Events Conditions
12:11 AM 24.8 °F 11.1 °F 19.4 °F 80% 29.95 in 1.8 mi ESE 18.4 mph - 0.00 in Snow Light Snow
12:32 AM 24.8 °F 11.5 °F 21.2 °F 86% 29.94 in 0.8 mi ESE 17.3 mph - 0.00 in Snow Light Snow
12:53 AM 24.1 °F 10.1 °F 21.9 °F 91% 29.96 in 0.8 mi ESE 18.4 mph - 0.00 in Snow Light Snow
1:28 AM 24.8 °F 11.9 °F 23.0 °F 93% 29.92 in 1.0 mi ESE 16.1 mph - 0.01 in Snow Light Snow
1:53 AM 25.0 °F 12.2 °F 23.0 °F 92% 29.95 in 1.2 mi ESE 16.1 mph - 0.01 in Snow Light Snow
2:02 AM 24.8 °F 11.9 °F 23.0 °F 93% 29.91 in 1.0 mi ESE 16.1 mph - 0.00 in Snow Light Snow
2:11 AM 24.8 °F 11.5 °F 23.0 °F 93% 29.90 in 0.8 mi ESE 17.3 mph - 0.00 in Snow Light Snow
2:24 AM 24.8 °F 10.7 °F 23.0 °F 93% 29.89 in 1.0 mi ESE 19.6 mph - 0.01 in Snow Light Snow
2:53 AM 24.1 °F 9.8 °F 23.0 °F 96% 29.91 in 1.5 mi ESE 19.6 mph - 0.01 in Snow Light Snow
3:14 AM 24.8 °F 11.5 °F 23.0 °F 93% 29.88 in 1.0 mi ESE 17.3 mph - 0.00 in Snow Light Snow
3:53 AM 25.0 °F 11.3 °F 23.0 °F 92% 29.90 in 1.5 mi East 18.4 mph - 0.00 in Snow Light Snow
4:08 AM 24.8 °F 11.1 °F 23.0 °F 93% 29.86 in 3.0 mi East 18.4 mph - 0.00 in Snow Light Snow
4:53 AM 26.1 °F 12.3 °F 24.1 °F 92% 29.89 in 8.0 mi ESE 19.6 mph - 0.00 in   Overcast
5:53 AM 26.1 °F 12.7 °F 24.1 °F 92% 29.88 in 6.0 mi East 18.4 mph - N/A   Overcast
6:53 AM 25.0 °F 12.2 °F 24.1 °F 96% 29.89 in 6.0 mi East 16.1 mph - N/A   Overcast
7:53 AM 26.1 °F 12.7 °F 24.1 °F 92% 29.88 in 5.0 mi East 18.4 mph - N/A   Overcast
8:53 AM 26.1 °F 12.7 °F 24.1 °F 92% 29.88 in 5.0 mi East 18.4 mph - N/A   Overcast
9:24 AM 26.6 °F 12.7 °F 24.8 °F 93% 29.83 in 5.0 mi East 20.7 mph - N/A   Overcast
9:53 AM 27.0 °F 13.9 °F 24.1 °F 89% 29.88 in 6.0 mi East 18.4 mph - N/A   Overcast
10:53 AM 28.9 °F 17.3 °F 26.1 °F 89% 29.88 in 6.0 mi East 16.1 mph - N/A   Overcast
11:53 AM 30.9 °F 18.7 °F 27.0 °F 85% 29.88 in 10.0 mi ESE 19.6 mph - N/A   Overcast
12:53 PM 32.0 °F 20.1 °F 27.0 °F 82% 29.87 in 10.0 mi ESE 19.6 mph - N/A   Overcast
1:53 PM 33.1 °F 21.9 °F 28.0 °F 82% 29.85 in 10.0 mi SE 18.4 mph - N/A   Overcast
2:53 PM 33.1 °F 22.6 °F 27.0 °F 78% 29.85 in 10.0 mi ESE 16.1 mph - N/A   Overcast
3:53 PM 30.9 °F 19.8 °F 27.0 °F 85% 29.87 in 10.0 mi East 16.1 mph - N/A   Overcast
4:53 PM 30.9 °F 19.8 °F 27.0 °F 85% 29.88 in 9.0 mi East 16.1 mph - N/A   Overcast
5:53 PM 30.9 °F 19.4 °F 26.1 °F 82% 29.90 in 10.0 mi East 17.3 mph - N/A   Overcast
6:53 PM 30.0 °F 19.1 °F 26.1 °F 85% 29.92 in 10.0 mi East 15.0 mph - N/A   Overcast
7:53 PM 28.9 °F 18.6 °F 25.0 °F 85% 29.96 in 10.0 mi East 12.7 mph - N/A   Overcast
8:53 PM 28.9 °F 18.2 °F 24.1 °F 82% 29.98 in 10.0 mi East 13.8 mph - N/A   Overcast
9:53 PM 28.9 °F 19.2 °F 24.1 °F 82% 29.99 in 10.0 mi East 11.5 mph - N/A   Overcast
10:53 PM 28.0 °F 20.0 °F 25.0 °F 88% 29.98 in 4.0 mi East 8.1 mph - N/A   Overcast
11:53 PM 27.0 °F 20.5 °F 25.0 °F 92% 29.96 in 3.0 mi East 5.8 mph - 0.00 in Snow Light Snow